GSFLA EGHQ-EGHA

Flight info

Callsign GSFLA
Flight time 0h 53m
Altitude 5000
Route EGHA
Aircraft P28B/L-SDGRY/S

Departure

Time 2026-05-05 18:30
Airport Cornwall Airport Newquay (EGHQ)

Arrival

Time 2026-05-05 19:24
Airport Compton Abbas Aerodrome (EGHA)
Time Latitude Longitude Altitude Speed Heading
2026-05-05 18:02 50.43699 -4.99439 355 ft 0 kts 271°
2026-05-05 18:14 50.43724 -4.99493 358 ft 13 kts 329°
2026-05-05 18:14 50.43820 -4.99516 352 ft 14 kts
2026-05-05 18:14 50.43910 -4.99510 350 ft 8 kts
2026-05-05 18:15 50.43924 -4.99509 350 ft 0 kts
2026-05-05 18:15 50.43940 -4.99507 350 ft 0 kts
2026-05-05 18:28 50.43982 -4.99504 349 ft 15 kts
2026-05-05 18:29 50.44065 -4.99512 352 ft 7 kts 315°
2026-05-05 18:29 50.44083 -4.99551 345 ft 0 kts 301°
2026-05-05 18:29 50.44084 -4.99553 345 ft 1 kts 301°
2026-05-05 18:29 50.44107 -4.99613 350 ft 24 kts 303°
2026-05-05 18:30 50.44278 -5.00071 347 ft 69 kts 301°
2026-05-05 18:30 50.44575 -5.00812 529 ft 85 kts 308°
2026-05-05 18:30 50.44911 -5.01605 885 ft 85 kts 312°
2026-05-05 18:30 50.45374 -5.01803 1253 ft 82 kts 33°
2026-05-05 18:31 50.45363 -5.00871 1615 ft 103 kts 112°
2026-05-05 18:31 50.45028 -4.99886 1999 ft 102 kts 108°
2026-05-05 18:31 50.44705 -4.98910 2380 ft 100 kts 109°
2026-05-05 18:31 50.44519 -4.98273 2617 ft 92 kts 90°
2026-05-05 18:32 50.44496 -4.97321 2993 ft 85 kts 83°
2026-05-05 18:32 50.44476 -4.96437 3356 ft 78 kts 81°
2026-05-05 18:32 50.44448 -4.95529 3503 ft 97 kts 78°
2026-05-05 18:32 50.44436 -4.94314 3517 ft 123 kts 82°
2026-05-05 18:33 50.44432 -4.92888 3515 ft 137 kts 83°
2026-05-05 18:33 50.44454 -4.91351 3514 ft 145 kts 82°
2026-05-05 18:33 50.44494 -4.89737 3510 ft 149 kts 82°
2026-05-05 18:33 50.44585 -4.88123 3506 ft 146 kts 69°
2026-05-05 18:34 50.45004 -4.86692 3509 ft 146 kts 57°
2026-05-05 18:34 50.45455 -4.85259 3510 ft 147 kts 59°
2026-05-05 18:34 50.45916 -4.83824 3505 ft 148 kts 58°
2026-05-05 18:34 50.46377 -4.82380 3503 ft 148 kts 59°
2026-05-05 18:35 50.46828 -4.80958 3564 ft 141 kts 57°
2026-05-05 18:35 50.47252 -4.79597 3716 ft 137 kts 57°
2026-05-05 18:35 50.47668 -4.78256 3857 ft 135 kts 57°
2026-05-05 18:35 50.48076 -4.76951 4010 ft 132 kts 58°
2026-05-05 18:36 50.48492 -4.75669 4159 ft 131 kts 58°
2026-05-05 18:36 50.48887 -4.74395 4314 ft 129 kts 58°
2026-05-05 18:36 50.49270 -4.73141 4465 ft 129 kts 60°
2026-05-05 18:36 50.49667 -4.71881 4621 ft 128 kts 58°
2026-05-05 18:37 50.50067 -4.70624 4778 ft 129 kts 57°
2026-05-05 18:37 50.50461 -4.69354 4929 ft 130 kts 64°
2026-05-05 18:37 50.50686 -4.67959 5066 ft 133 kts 72°
2026-05-05 18:37 50.50874 -4.66529 5219 ft 135 kts 73°
2026-05-05 18:38 50.51074 -4.65097 5376 ft 133 kts 72°
2026-05-05 18:38 50.51291 -4.63687 5522 ft 133 kts 71°
2026-05-05 18:38 50.51521 -4.62271 5675 ft 134 kts 71°
2026-05-05 18:38 50.51739 -4.60848 5833 ft 136 kts 71°
2026-05-05 18:39 50.51952 -4.59385 5990 ft 138 kts 73°
2026-05-05 18:39 50.52178 -4.57916 6144 ft 138 kts 73°
2026-05-05 18:39 50.52405 -4.56447 6305 ft 139 kts 72°
2026-05-05 18:39 50.52640 -4.54961 6456 ft 141 kts 71°
2026-05-05 18:40 50.52863 -4.53465 6598 ft 140 kts 71°
2026-05-05 18:40 50.53068 -4.51982 6742 ft 138 kts 73°
2026-05-05 18:40 50.53289 -4.50522 6888 ft 137 kts 74°
2026-05-05 18:40 50.53521 -4.49077 7032 ft 136 kts 69°
2026-05-05 18:41 50.53763 -4.47656 7182 ft 134 kts 71°
2026-05-05 18:41 50.54009 -4.46240 7330 ft 135 kts 69°
2026-05-05 18:41 50.54239 -4.44819 7467 ft 133 kts 71°
2026-05-05 18:41 50.54480 -4.43417 7616 ft 132 kts 69°
2026-05-05 18:42 50.54725 -4.42028 7765 ft 132 kts 69°
2026-05-05 18:42 50.54970 -4.40644 7914 ft 131 kts 72°
2026-05-05 18:42 50.55202 -4.39264 8067 ft 131 kts 69°
2026-05-05 18:42 50.55424 -4.37872 8216 ft 131 kts 72°
2026-05-05 18:43 50.55654 -4.36492 8369 ft 130 kts 71°
2026-05-05 18:43 50.55883 -4.35119 8525 ft 130 kts 70°
2026-05-05 18:43 50.56120 -4.33745 8677 ft 130 kts 69°
2026-05-05 18:43 50.56343 -4.32373 8833 ft 129 kts 68°
2026-05-05 18:44 50.56540 -4.31003 8993 ft 130 kts 68°
2026-05-05 18:44 50.56759 -4.29634 9151 ft 129 kts 68°
2026-05-05 18:44 50.56980 -4.28278 9300 ft 126 kts 69°
2026-05-05 18:44 50.57201 -4.26941 9447 ft 127 kts 69°
2026-05-05 18:45 50.57408 -4.25604 9599 ft 125 kts 72°
2026-05-05 18:45 50.57599 -4.24269 9756 ft 126 kts 70°
2026-05-05 18:45 50.57798 -4.22941 9911 ft 124 kts 68°
2026-05-05 18:45 50.58004 -4.21628 10056 ft 123 kts 70°
2026-05-05 18:46 50.58229 -4.20334 10192 ft 122 kts 68°
2026-05-05 18:46 50.58435 -4.19037 10335 ft 122 kts 67°
2026-05-05 18:46 50.58632 -4.17740 10490 ft 122 kts 72°
2026-05-05 18:46 50.58841 -4.16453 10633 ft 121 kts 67°
2026-05-05 18:47 50.59051 -4.15180 10775 ft 119 kts 71°
2026-05-05 18:47 50.59275 -4.13926 10921 ft 119 kts 66°
2026-05-05 18:47 50.59486 -4.12671 11063 ft 118 kts 71°
2026-05-05 18:47 50.59694 -4.11428 11207 ft 117 kts 70°
2026-05-05 18:48 50.59888 -4.10186 11356 ft 116 kts 72°
2026-05-05 18:48 50.60098 -4.08956 11454 ft 119 kts 72°
2026-05-05 18:48 50.60332 -4.07658 11464 ft 127 kts 71°
2026-05-05 18:48 50.60580 -4.06279 11468 ft 134 kts 72°
2026-05-05 18:49 50.60837 -4.04847 11467 ft 138 kts 69°
2026-05-05 18:49 50.61089 -4.03373 11469 ft 140 kts 71°
2026-05-05 18:49 50.61356 -4.01892 11468 ft 141 kts 69°
2026-05-05 18:49 50.61633 -4.00412 11469 ft 141 kts 70°
2026-05-05 18:50 50.61908 -3.98923 11466 ft 142 kts 71°
2026-05-05 18:50 50.62176 -3.97431 11467 ft 142 kts 70°
2026-05-05 18:50 50.62439 -3.95933 11467 ft 142 kts 71°
2026-05-05 18:50 50.62708 -3.94442 11467 ft 141 kts 69°
2026-05-05 18:51 50.62989 -3.92939 11374 ft 148 kts 68°
2026-05-05 18:51 50.63287 -3.91322 11130 ft 158 kts 70°
2026-05-05 18:51 50.63591 -3.89615 10893 ft 165 kts 71°
2026-05-05 18:51 50.63902 -3.87868 10662 ft 167 kts 70°
2026-05-05 18:52 50.64222 -3.86102 10424 ft 168 kts 69°
2026-05-05 18:52 50.64541 -3.84326 10184 ft 169 kts 71°
2026-05-05 18:52 50.64901 -3.82602 9949 ft 167 kts 60°
2026-05-05 18:52 50.65417 -3.80966 9693 ft 166 kts 56°
2026-05-05 18:53 50.65955 -3.79354 9428 ft 167 kts 59°
2026-05-05 18:53 50.66511 -3.77743 9171 ft 167 kts 57°
2026-05-05 18:53 50.67051 -3.76126 8964 ft 164 kts 59°
2026-05-05 18:53 50.67560 -3.74575 8951 ft 156 kts 59°
2026-05-05 18:54 50.68053 -3.73089 8946 ft 151 kts 59°
2026-05-05 18:54 50.68552 -3.71643 8941 ft 149 kts 58°
2026-05-05 18:54 50.69045 -3.70215 8936 ft 147 kts 57°
2026-05-05 18:54 50.69523 -3.68796 8947 ft 146 kts 58°
2026-05-05 18:55 50.70005 -3.67385 8937 ft 146 kts 57°
2026-05-05 18:55 50.70494 -3.65959 8941 ft 146 kts 58°
2026-05-05 18:55 50.70968 -3.64576 8938 ft 145 kts 59°
2026-05-05 18:55 50.71444 -3.63172 8941 ft 145 kts 58°
2026-05-05 18:56 50.71914 -3.61759 8944 ft 146 kts 58°
2026-05-05 18:56 50.72392 -3.60351 8939 ft 146 kts 58°
2026-05-05 18:56 50.72875 -3.58944 8937 ft 145 kts 57°
2026-05-05 18:56 50.73349 -3.57539 8943 ft 145 kts 58°
2026-05-05 18:57 50.73820 -3.56134 8941 ft 145 kts 59°
2026-05-05 18:57 50.74294 -3.54725 8940 ft 145 kts 59°
2026-05-05 18:57 50.74772 -3.53323 8939 ft 146 kts 58°
2026-05-05 18:57 50.75253 -3.51913 8944 ft 146 kts 57°
2026-05-05 18:58 50.75729 -3.50495 8948 ft 147 kts 58°
2026-05-05 18:58 50.76204 -3.49076 8947 ft 146 kts 57°
2026-05-05 18:58 50.76681 -3.47664 8942 ft 146 kts 58°
2026-05-05 18:58 50.77161 -3.46251 8941 ft 146 kts 57°
2026-05-05 18:59 50.77636 -3.44837 8938 ft 146 kts 58°
2026-05-05 18:59 50.78104 -3.43416 8945 ft 145 kts 58°
2026-05-05 18:59 50.78576 -3.42004 8948 ft 146 kts 59°
2026-05-05 18:59 50.79055 -3.40592 8941 ft 146 kts 58°
2026-05-05 19:00 50.79528 -3.39179 8938 ft 146 kts 58°
2026-05-05 19:00 50.79997 -3.37761 8936 ft 145 kts 58°
2026-05-05 19:00 50.80463 -3.36346 8935 ft 145 kts 57°
2026-05-05 19:00 50.80934 -3.34933 8939 ft 145 kts 58°
2026-05-05 19:01 50.81410 -3.33522 8939 ft 145 kts 59°
2026-05-05 19:01 50.81880 -3.32112 8941 ft 145 kts 58°
2026-05-05 19:01 50.82342 -3.30703 8940 ft 145 kts 59°
2026-05-05 19:01 50.82810 -3.29293 8944 ft 145 kts 59°
2026-05-05 19:02 50.83282 -3.27884 8943 ft 145 kts 58°
2026-05-05 19:02 50.83757 -3.26476 8946 ft 146 kts 58°
2026-05-05 19:02 50.84231 -3.25060 8944 ft 145 kts 58°
2026-05-05 19:02 50.84705 -3.23648 8947 ft 145 kts 58°
2026-05-05 19:03 50.85180 -3.22232 8946 ft 145 kts 58°
2026-05-05 19:03 50.85657 -3.20820 8949 ft 145 kts 58°
2026-05-05 19:03 50.86131 -3.19406 8946 ft 146 kts 59°
2026-05-05 19:03 50.86604 -3.17990 8948 ft 145 kts 58°
2026-05-05 19:04 50.87078 -3.16578 8952 ft 145 kts 58°
2026-05-05 19:04 50.87546 -3.15184 8947 ft 146 kts 58°
2026-05-05 19:04 50.88021 -3.13768 8954 ft 146 kts 58°
2026-05-05 19:04 50.88495 -3.12348 8947 ft 146 kts 58°
2026-05-05 19:05 50.88971 -3.10932 8952 ft 145 kts 58°
2026-05-05 19:05 50.89448 -3.09514 8948 ft 146 kts 58°
2026-05-05 19:05 50.89925 -3.08089 8949 ft 146 kts 58°
2026-05-05 19:05 50.90401 -3.06660 8949 ft 146 kts 59°
2026-05-05 19:06 50.90874 -3.05235 8948 ft 146 kts 58°
2026-05-05 19:06 50.91349 -3.03809 8953 ft 147 kts 59°
2026-05-05 19:06 50.91825 -3.02382 8952 ft 146 kts 58°
2026-05-05 19:06 50.92300 -3.00955 8952 ft 147 kts 58°
2026-05-05 19:07 50.92776 -2.99522 8952 ft 147 kts 59°
2026-05-05 19:07 50.93252 -2.98089 8950 ft 146 kts 59°
2026-05-05 19:07 50.93725 -2.96664 8952 ft 146 kts 59°
2026-05-05 19:07 50.94198 -2.95240 8948 ft 146 kts 59°
2026-05-05 19:08 50.94658 -2.93811 8953 ft 146 kts 65°
2026-05-05 19:08 50.94784 -2.92199 8947 ft 149 kts 84°
2026-05-05 19:08 50.94826 -2.90555 8949 ft 149 kts 84°
2026-05-05 19:08 50.94871 -2.88914 8950 ft 149 kts 84°
2026-05-05 19:09 50.94917 -2.87266 8948 ft 150 kts 84°
2026-05-05 19:09 50.94961 -2.85620 8948 ft 149 kts 84°
2026-05-05 19:09 50.95004 -2.83980 8949 ft 148 kts 84°
2026-05-05 19:09 50.95046 -2.82345 8957 ft 149 kts 85°
2026-05-05 19:10 50.95098 -2.80698 8946 ft 150 kts 82°
2026-05-05 19:10 50.95148 -2.79052 8946 ft 150 kts 85°
2026-05-05 19:10 50.95193 -2.77401 8945 ft 150 kts 83°
2026-05-05 19:10 50.95227 -2.75746 8945 ft 150 kts 85°
2026-05-05 19:11 50.95270 -2.74094 8947 ft 150 kts 85°
2026-05-05 19:11 50.95314 -2.72441 8946 ft 150 kts 84°
2026-05-05 19:11 50.95367 -2.70784 8947 ft 150 kts 85°
2026-05-05 19:11 50.95409 -2.69065 8608 ft 167 kts 84°
2026-05-05 19:12 50.95453 -2.67178 8117 ft 178 kts 86°
2026-05-05 19:12 50.95349 -2.65193 7624 ft 183 kts 94°
2026-05-05 19:12 50.95187 -2.63188 7135 ft 183 kts 96°
2026-05-05 19:12 50.95032 -2.61180 6646 ft 183 kts 95°
2026-05-05 19:13 50.94878 -2.59180 6150 ft 182 kts 95°
2026-05-05 19:13 50.94711 -2.57191 5636 ft 182 kts 96°
2026-05-05 19:13 50.94533 -2.55209 5124 ft 181 kts 96°
2026-05-05 19:13 50.94348 -2.53227 4617 ft 182 kts 95°
2026-05-05 19:14 50.94391 -2.51267 4083 ft 177 kts 71°
2026-05-05 19:14 50.94802 -2.49433 3573 ft 176 kts 66°
2026-05-05 19:14 50.95212 -2.47676 3480 ft 160 kts 66°
2026-05-05 19:14 50.95578 -2.46072 3492 ft 151 kts 66°
2026-05-05 19:15 50.95932 -2.44519 3490 ft 149 kts 66°
2026-05-05 19:15 50.96285 -2.42982 3489 ft 148 kts 66°
2026-05-05 19:15 50.96623 -2.41457 3492 ft 146 kts 66°
2026-05-05 19:15 50.96963 -2.39940 3493 ft 147 kts 66°
2026-05-05 19:16 50.97307 -2.38416 3491 ft 147 kts 66°
2026-05-05 19:16 50.97653 -2.36888 3493 ft 147 kts 66°
2026-05-05 19:16 50.97996 -2.35360 3502 ft 147 kts 66°
2026-05-05 19:16 50.98340 -2.33850 3502 ft 145 kts 66°
2026-05-05 19:17 50.98692 -2.32358 3498 ft 144 kts 66°
2026-05-05 19:17 50.99043 -2.30869 3499 ft 145 kts 66°
2026-05-05 19:17 50.99387 -2.29364 3499 ft 145 kts 66°
2026-05-05 19:17 50.99732 -2.27863 3496 ft 144 kts 66°
2026-05-05 19:18 51.00080 -2.26373 3494 ft 144 kts 66°
2026-05-05 19:18 51.00426 -2.24880 3494 ft 144 kts 67°
2026-05-05 19:18 51.00780 -2.23381 3491 ft 145 kts 66°
2026-05-05 19:18 51.01061 -2.21880 3483 ft 146 kts 84°
2026-05-05 19:19 51.00597 -2.20418 3487 ft 155 kts 129°
2026-05-05 19:19 50.99835 -2.19241 3470 ft 155 kts 130°
2026-05-05 19:19 50.99307 -2.18420 3359 ft 161 kts 130°
2026-05-05 19:19 50.98231 -2.16740 3091 ft 161 kts 130°
2026-05-05 19:20 50.97673 -2.16020 2940 ft 150 kts 148°
2026-05-05 19:20 50.96673 -2.15672 2722 ft 146 kts 168°
2026-05-05 19:20 50.95727 -2.15307 2396 ft 132 kts 142°
2026-05-05 19:20 50.95592 -2.14252 2186 ft 82 kts 42°
2026-05-05 19:21 50.96095 -2.14197 1982 ft 76 kts 346°
2026-05-05 19:21 50.96609 -2.14515 1717 ft 83 kts 343°
2026-05-05 19:21 50.97108 -2.14821 1711 ft 80 kts 342°
2026-05-05 19:21 50.97574 -2.15209 1924 ft 73 kts 334°
2026-05-05 19:22 50.97957 -2.15778 2010 ft 87 kts 301°
2026-05-05 19:22 50.97852 -2.16801 2012 ft 101 kts 253°
2026-05-05 19:22 50.97594 -2.17769 1990 ft 94 kts 258°
2026-05-05 19:22 50.97117 -2.18478 1834 ft 104 kts 187°
2026-05-05 19:23 50.96476 -2.18079 1738 ft 95 kts 124°
2026-05-05 19:23 50.96383 -2.17239 1521 ft 79 kts 55°
2026-05-05 19:23 50.96585 -2.16321 956 ft 91 kts 53°
2026-05-05 19:23 50.96715 -2.15435 828 ft 72 kts 70°
2026-05-05 19:24 50.96811 -2.14792 824 ft 40 kts 74°
2026-05-05 19:24 50.96802 -2.14681 823 ft 9 kts 239°
2026-05-05 19:24 50.96787 -2.14766 823 ft 10 kts 256°
2026-05-05 19:24 50.96764 -2.14905 824 ft 0 kts 256°
2026-05-05 19:26 50.96763 -2.14913 824 ft 7 kts 258°
2026-05-05 19:27 50.96727 -2.15099 822 ft 23 kts 249°
2026-05-05 19:27 50.96695 -2.15323 819 ft 17 kts 259°
2026-05-05 19:27 50.96645 -2.15456 816 ft 9 kts 261°
2026-05-05 19:27 50.96651 -2.15499 815 ft 0 kts 349°